STARLINK-4615 (53620 NORAD) Tracking and Keplerian Element Data

This shows tracking and keplerian element data for the satellite.

Feedback or suggestion? Click here.




ElementValue
Catalog53620
NameSTARLINK-4615
Epoch Orbit130
Epoch Day324.91667824
Epoch Year2022
RAAN242.3854
Inclination53.2157
Eccentricity0.0001814
Argument of Perigee47.9375
Mean Anonmoly91.64
Mean Motion15.0883348
Decay Rate-0.00020171
L11 53620U 22104AJ 22324.91667824 -.00020171 00000+0 -12530-2 0 9996
L22 53620 53.2157 242.3854 0001814 47.9375 91.6400 15.08833480 1302



Live tracking and technical data element details for STARLINK-4615 (NORAD 53620). STARLINK-4615 can be tracked NOW for your location showing map with azimuth and elevation plus other details from your city location.







IsCatalogInMostPopularTable: catalog: 53620, numindb: 3
Update: records affected: 1



GetName: 53620 STARLINK-4615

Hit Count: updated at: Thu, 08 Dec 2022 20:26:59 GMT